Regional Weather Roundup
Issued by NWS

Home | Current Version | Previous Version | Graphics & Text | Print | Product List | Glossary On
Versions: 1 2 3 4 5 6 7 8 9 10 11 12 13 14 15 16 17 18 19 20 21 22 23 24 25 26 27 28 29 30 31 32 33 34 35 36 37 38 39 40 41 42 43 44 45 46 47 48 49 50
000
ASUS45 KSLC 240910
RWRUT

UTAH REGIONAL WEATHER ROUNDUP
NATIONAL WEATHER SERVICE SALT LAKE CITY UT
300 AM MDT THU JUL 24 2014

UTZ001>011-023>025-241000-

NORTHERN UTAH

CITY           SKY/WX    TMP DP  RH WIND       PRES   REMARKS
HILL AFB       MOCLDY    83  45  26 S15       30.00R
LOGAN          NOT AVBL
OGDEN          CLEAR     84  44  24 S17       29.96R
PROVO AIRPORT  MOCLDY    79  46  31 E9        30.05S
SALT LAKE CITY MOCLDY    86  43  22 S15       29.95S
VERNAL         CLOUDY    74  44  34 N3        30.13F
WENDOVER       CLEAR     82  25  12 W5G17     30.00R
HEBER CITY     MOCLDY    66  46  48 E3        30.14S
WEST JORDAN    CLEAR     82  54  36 S15       30.02S

$$

UTZ012>022-026-027-241000-

SOUTHERN UTAH

CITY           SKY/WX    TMP DP  RH WIND       PRES   REMARKS
BRYCE CANYON   MOCLDY    69  49  48 SE10      30.38S
CEDAR CITY     MOCLDY    73  38  27 SW5       30.16S
MILFORD        PTCLDY    78  36  21 SW13      30.09S
MOAB/CYNLANDS  CLEAR     82  41  23 SW9       30.10R
PRICE          MOCLDY    71  51  49 SE7       30.22R
ST GEORGE      PTSUNNY   90  36  14 SE7       29.95S
KANAB            N/A     72  39  30 CALM      30.18S

$$

REGIONAL REPORTS     COLORADO/ARIZONA

CITY           SKY/WX    TMP DP  RH WIND       PRES   REMARKS
CRAIG, CO      PTCLDY    58  50  75 SE3       30.25R
GRAND JUNCTION MOCLDY    83  46  27 SE18      30.11F
RIFLE          MOCLDY    68  46  45 CALM      30.22R
MONTROSE       PTCLDY    71  56  58 SE10      30.28S
CORTEZ         PTCLDY    77  49  37 E15G24    30.30F
PAGE, AZ       CLOUDY    86  50  28 NE5       30.11R
GRAND CANYON   MOCLDY    70  48  45 S3        30.33S
KINGMAN        PTCLDY    82  31  15 SE12      30.02S
FLAGSTAFF      CLOUDY    66  51  58 CALM      30.38F

$$

REGIONAL REPORTS    NEVADA/IDAHO/WYOMING

CITY           SKY/WX    TMP DP  RH WIND       PRES   REMARKS
LAS VEGAS, NV  CLEAR     94  29  10 SW13      29.82F
ELY            CLEAR     66  21  18 S6        30.20R
ELKO           CLEAR     57  31  37 SW3       30.14R
POCATELLO, ID  CLEAR     72  40  31 S13       30.02R
BURLEY         PTCLDY    68  38  33 W13       30.02R
EVANSTON, WY   CLEAR     64  43  46 SW15      30.22S
ROCK SPRINGS   PTCLDY    70  34  26 S8        30.22F

$$


USA.gov is the U.S. government's official web portal to all federal, state and local government web resources and services.